Hourly Data Report for October 28, 2013

All times are specified in Local Standard Time (LST). Add 1 hour to adjust for Daylight Saving Time where and when it is observed.

RANKIN INLET A
NUNAVUT

62°48'38.000" N
92°06'53.000" W
32.30 m
2303405
71083
YRT

Download Data

Hourly Data (October 2013)
Hourly Data Report for October 28, 2013
Temp Definition
°C
Dew Point Temp Definition
°C
Rel Hum Definition
%
Wind Dir Definition
10's deg

Wind Spd Definition
km/h
Visibility Definition
km
Stn Press Definition
kPa
Hmdx Definition


Wind Chill Definition


Weather Definition


TIME
00:00 Legend Double Dagger -12.9 -15.5 81 31 26 24.1 101.40   -23 Blowing Snow
01:00 Legend Double Dagger -13.9 -15.9 85 30 21 24.1 101.37   -23 Blowing Snow
02:00 Legend Double Dagger -11.1 -12.9 87 29 17 8.1 101.26   -19 Snow,Blowing Snow
03:00 Legend Double Dagger -11.0 -13.1 85 31 35 12.9 101.19   -22 Snow,Blowing Snow
04:00 Legend Double Dagger -11.3 -13.2 86 31 40 12.9 101.14   -23 Snow,Blowing Snow
05:00 Legend Double Dagger -11.4 -13.3 86 30 40 6.4 101.11   -23 Snow,Blowing Snow
06:00 Legend Double Dagger -11.2 -13.0 87 31 50 1.2 101.05   -23 Snow,Blowing Snow
07:00 Legend Double Dagger -10.6 -12.2 88 32 49 1.2 101.03   -22 Snow,Blowing Snow
08:00 Legend Double Dagger -12.6 -14.6 85 33 40 16.1 101.08   -24 Blowing Snow
09:00 Legend Double Dagger -13.3 -16.1 80 33 41 19.3 101.10   -25 Blowing Snow
10:00 Legend Double Dagger -13.8 -16.5 80 33 31 24.1 101.09   -25 Blowing Snow
11:00 Legend Double Dagger -13.2 -15.7 82 33 39 3.2 101.12   -25 Snow,Blowing Snow
12:00 Legend Double Dagger -13.0 -15.6 81 33 44 4.8 101.07   -25 Blowing Snow
13:00 Legend Double Dagger -13.6 -16.4 80 32 43 6.4 101.07   -26 Blowing Snow
14:00 Legend Double Dagger -13.4 -16.0 81 33 46 4.8 101.06   -26 Blowing Snow
15:00 Legend Double Dagger -14.3 -17.2 79 34 40 8.1 101.09   -27 Blowing Snow
16:00 Legend Double Dagger -15.2 -18.1 79 34 26 16.1 101.14   -26 Blowing Snow
17:00 Legend Double Dagger -15.8 -19.0 77 34 22 24.1 101.17   -26 LegendNANA
18:00 Legend Double Dagger -16.2 -19.0 79 34 18 24.1 101.17   -25 Mainly Clear
19:00 Legend Double Dagger -17.0 -19.7 80 33 26 24.1 101.13   -28 LegendNANA
20:00 Legend Double Dagger -17.7 -20.4 80 33 21 24.1 101.12   -28 LegendNANA
21:00 Legend Double Dagger -17.6 -20.6 78 33 23 24.1 101.10   -28 Mainly Clear
22:00 Legend Double Dagger -17.2 -20.0 79 34 31 24.1 101.03   -29 LegendNANA
23:00 Legend Double Dagger -18.0 -20.8 79 34 26 24.1 101.02   -29 LegendNANA

Notes on Data Quality.

Legend

  • E = Estimated
  • M = Missing
  • NA = Not Available
  • ‡ = Partner data that is not subject to review by the National Climate Archives
Date modified: